Year,Month,Day,Hour,Minute,Value (Times are PST for temperature in C)
2018,08,07,00,00,19.20
2018,08,07,00,01,19.20
2018,08,07,00,02,19.20
2018,08,07,00,03,19.10
2018,08,07,00,04,19.10
2018,08,07,00,05,19.10
2018,08,07,00,06,19.10
2018,08,07,00,07,19.10
2018,08,07,00,08,19.10
2018,08,07,00,09,19.10
2018,08,07,00,10,19.10
2018,08,07,00,11,19.10
2018,08,07,00,12,19.00
2018,08,07,00,13,19.00
2018,08,07,00,14,19.00
2018,08,07,00,15,19.00
2018,08,07,00,16,18.90
2018,08,07,00,17,18.90
2018,08,07,00,18,18.90
2018,08,07,00,19,18.90
2018,08,07,00,20,18.90
2018,08,07,00,21,18.90
2018,08,07,00,22,18.90
2018,08,07,00,23,18.80
2018,08,07,00,24,18.80
2018,08,07,00,25,18.80
2018,08,07,00,26,18.80
2018,08,07,00,27,18.80
2018,08,07,00,28,18.80
2018,08,07,00,29,18.80
2018,08,07,00,30,18.80
2018,08,07,00,31,18.80
2018,08,07,00,32,18.80
2018,08,07,00,33,18.80
2018,08,07,00,34,18.80
2018,08,07,00,35,18.80
2018,08,07,00,36,18.80
2018,08,07,00,37,18.80
2018,08,07,00,38,18.70
2018,08,07,00,39,18.70
2018,08,07,00,40,18.70
2018,08,07,00,41,18.70
2018,08,07,00,42,18.70
2018,08,07,00,43,18.70
2018,08,07,00,44,18.60
2018,08,07,00,45,18.60
2018,08,07,00,46,18.60
2018,08,07,00,47,18.60
2018,08,07,00,48,18.60
2018,08,07,00,49,18.60
2018,08,07,00,50,18.60
2018,08,07,00,51,18.60
2018,08,07,00,52,18.60
2018,08,07,00,53,18.60
2018,08,07,00,54,18.60
2018,08,07,00,55,18.60
2018,08,07,00,56,18.60
2018,08,07,00,57,18.60
2018,08,07,00,58,18.60
2018,08,07,00,59,18.60
2018,08,07,01,00,18.60
2018,08,07,01,01,18.60
2018,08,07,01,02,18.60
2018,08,07,01,03,18.60
2018,08,07,01,04,18.60
2018,08,07,01,05,18.60
2018,08,07,01,06,18.60
2018,08,07,01,07,18.60
2018,08,07,01,08,18.60
2018,08,07,01,09,18.60
2018,08,07,01,10,18.60
2018,08,07,01,11,18.60
2018,08,07,01,12,18.60
2018,08,07,01,13,18.60
2018,08,07,01,14,18.60
2018,08,07,01,15,18.60
2018,08,07,01,16,18.60
2018,08,07,01,17,18.70
2018,08,07,01,18,18.70
2018,08,07,01,19,18.70
2018,08,07,01,20,18.70
2018,08,07,01,21,18.70
2018,08,07,01,22,18.70
2018,08,07,01,23,18.70
2018,08,07,01,24,18.70
2018,08,07,01,25,18.70
2018,08,07,01,26,18.70
2018,08,07,01,27,18.70
2018,08,07,01,28,18.70
2018,08,07,01,29,18.70
2018,08,07,01,30,18.70
2018,08,07,01,31,18.70
2018,08,07,01,32,18.70
2018,08,07,01,33,18.70
2018,08,07,01,34,18.70
2018,08,07,01,35,18.70
2018,08,07,01,36,18.70
2018,08,07,01,37,18.70
2018,08,07,01,38,18.60
2018,08,07,01,39,18.60
2018,08,07,01,40,18.60
2018,08,07,01,41,18.60
2018,08,07,01,42,18.60
2018,08,07,01,43,18.60
2018,08,07,01,44,18.60
2018,08,07,01,45,18.60
2018,08,07,01,46,18.60
2018,08,07,01,47,18.60
2018,08,07,01,48,18.60
2018,08,07,01,49,18.60
2018,08,07,01,50,18.60
2018,08,07,01,51,18.60
2018,08,07,01,52,18.60
2018,08,07,01,53,18.60
2018,08,07,01,54,18.60
2018,08,07,01,55,18.60
2018,08,07,01,56,18.60
2018,08,07,01,57,18.50
2018,08,07,01,58,18.50
2018,08,07,01,59,18.50
2018,08,07,02,00,18.50
2018,08,07,02,01,18.50
2018,08,07,02,02,18.50
2018,08,07,02,03,18.50
2018,08,07,02,04,18.50
2018,08,07,02,05,18.50
2018,08,07,02,06,18.50
2018,08,07,02,07,18.50
2018,08,07,02,08,18.40
2018,08,07,02,09,18.40
2018,08,07,02,10,18.40
2018,08,07,02,11,18.40
2018,08,07,02,12,18.40
2018,08,07,02,13,18.40
2018,08,07,02,14,18.40
2018,08,07,02,15,18.40
2018,08,07,02,16,18.40
2018,08,07,02,17,18.30
2018,08,07,02,18,18.30
2018,08,07,02,19,18.30
2018,08,07,02,20,18.30
2018,08,07,02,21,18.30
2018,08,07,02,22,18.30
2018,08,07,02,23,18.20
2018,08,07,02,24,18.20
2018,08,07,02,25,18.20
2018,08,07,02,26,18.20
2018,08,07,02,27,18.20
2018,08,07,02,28,18.20
2018,08,07,02,29,18.20
2018,08,07,02,30,18.20
2018,08,07,02,31,18.20
2018,08,07,02,32,18.10
2018,08,07,02,33,18.10
2018,08,07,02,34,18.10
2018,08,07,02,35,18.10
2018,08,07,02,36,18.10
2018,08,07,02,37,18.10
2018,08,07,02,38,18.10
2018,08,07,02,39,18.10
2018,08,07,02,40,18.10
2018,08,07,02,41,18.10
2018,08,07,02,42,18.10
2018,08,07,02,43,18.00
2018,08,07,02,44,18.10
2018,08,07,02,45,18.00
2018,08,07,02,46,18.00
2018,08,07,02,47,18.00
2018,08,07,02,48,18.00
2018,08,07,02,49,18.00
2018,08,07,02,50,18.00
2018,08,07,02,51,18.00
2018,08,07,02,52,18.00
2018,08,07,02,53,18.00
2018,08,07,02,54,18.00
2018,08,07,02,55,18.00
2018,08,07,02,56,18.00
2018,08,07,02,57,18.00
2018,08,07,02,58,18.00
2018,08,07,02,59,18.00
2018,08,07,03,00,18.00
2018,08,07,03,01,18.00
2018,08,07,03,02,18.00
2018,08,07,03,03,18.00
2018,08,07,03,04,18.00
2018,08,07,03,05,18.00
2018,08,07,03,06,18.00
2018,08,07,03,07,18.00
2018,08,07,03,08,18.00
2018,08,07,03,09,18.00
2018,08,07,03,10,18.00
2018,08,07,03,11,18.00
2018,08,07,03,12,18.00
2018,08,07,03,13,18.00
2018,08,07,03,14,18.00
2018,08,07,03,15,18.00
2018,08,07,03,16,18.00
2018,08,07,03,17,18.00
2018,08,07,03,18,18.00
2018,08,07,03,19,18.00
2018,08,07,03,20,18.00
2018,08,07,03,21,18.00
2018,08,07,03,22,18.00
2018,08,07,03,23,18.00
2018,08,07,03,24,18.00
2018,08,07,03,25,18.00
2018,08,07,03,26,18.00
2018,08,07,03,27,18.00
2018,08,07,03,28,18.00
2018,08,07,03,29,18.00
2018,08,07,03,30,18.00
2018,08,07,03,31,18.00
2018,08,07,03,32,18.00
2018,08,07,03,33,18.00
2018,08,07,03,34,18.00
2018,08,07,03,35,18.00
2018,08,07,03,36,18.00
2018,08,07,03,37,18.00
2018,08,07,03,38,18.00
2018,08,07,03,39,18.00
2018,08,07,03,40,18.00
2018,08,07,03,41,18.00
2018,08,07,03,42,18.00
2018,08,07,03,43,18.00
2018,08,07,03,44,18.00
2018,08,07,03,45,18.00
2018,08,07,03,46,18.00
2018,08,07,03,47,18.00
2018,08,07,03,48,18.00
2018,08,07,03,49,18.00
2018,08,07,03,50,18.00
2018,08,07,03,51,18.00
2018,08,07,03,52,18.00
2018,08,07,03,53,18.00
2018,08,07,03,54,18.00
2018,08,07,03,55,18.00
2018,08,07,03,56,18.00
2018,08,07,03,57,18.00
2018,08,07,03,58,17.90
2018,08,07,03,59,18.00
2018,08,07,04,00,17.90
2018,08,07,04,01,17.90
2018,08,07,04,02,17.90
2018,08,07,04,03,17.90
2018,08,07,04,04,17.90
2018,08,07,04,05,17.90
2018,08,07,04,06,17.90
2018,08,07,04,07,17.90
2018,08,07,04,08,17.90
2018,08,07,04,09,17.90
2018,08,07,04,10,17.90
2018,08,07,04,11,17.90
2018,08,07,04,12,17.90
2018,08,07,04,13,17.90
2018,08,07,04,14,17.90
2018,08,07,04,15,17.90
2018,08,07,04,16,17.90
2018,08,07,04,17,17.90
2018,08,07,04,18,17.90
2018,08,07,04,19,17.80
2018,08,07,04,20,17.80
2018,08,07,04,21,17.80
2018,08,07,04,22,17.80
2018,08,07,04,23,17.80
2018,08,07,04,24,17.80
2018,08,07,04,25,17.80
2018,08,07,04,26,17.80
2018,08,07,04,27,17.80
2018,08,07,04,28,17.80
2018,08,07,04,29,17.80
2018,08,07,04,30,17.70
2018,08,07,04,31,17.70
2018,08,07,04,32,17.70
2018,08,07,04,33,17.70
2018,08,07,04,34,17.70
2018,08,07,04,35,17.70
2018,08,07,04,36,17.70
2018,08,07,04,37,17.70
2018,08,07,04,38,17.70
2018,08,07,04,39,17.60
2018,08,07,04,40,17.60
2018,08,07,04,41,17.60
2018,08,07,04,42,17.60
2018,08,07,04,43,17.60
2018,08,07,04,44,17.60
2018,08,07,04,45,17.60
2018,08,07,04,46,17.60
2018,08,07,04,47,17.60
2018,08,07,04,48,17.60
2018,08,07,04,49,17.60
2018,08,07,04,50,17.60
2018,08,07,04,51,17.50
2018,08,07,04,52,17.50
2018,08,07,04,53,17.50
2018,08,07,04,54,17.50
2018,08,07,04,55,17.50
2018,08,07,04,56,17.50
2018,08,07,04,57,17.40
2018,08,07,04,58,17.40
2018,08,07,04,59,17.40
2018,08,07,05,00,17.40
2018,08,07,05,01,17.40
2018,08,07,05,02,17.40
2018,08,07,05,03,17.40
2018,08,07,05,04,17.40
2018,08,07,05,05,17.40
2018,08,07,05,06,17.40
2018,08,07,05,07,17.40
2018,08,07,05,08,17.40
2018,08,07,05,09,17.40
2018,08,07,05,10,17.40
2018,08,07,05,11,17.40
2018,08,07,05,12,17.40
2018,08,07,05,13,17.40
2018,08,07,05,14,17.40
2018,08,07,05,15,17.40
2018,08,07,05,16,17.50
2018,08,07,05,17,17.50
2018,08,07,05,18,17.60
2018,08,07,05,19,17.60
2018,08,07,05,20,17.60
2018,08,07,05,21,17.60
2018,08,07,05,22,17.60
2018,08,07,05,23,17.60
2018,08,07,05,24,17.60
2018,08,07,05,25,17.60
2018,08,07,05,26,17.60
2018,08,07,05,27,17.60
2018,08,07,05,28,17.60
2018,08,07,05,29,17.60
2018,08,07,05,30,17.60
2018,08,07,05,31,17.60
2018,08,07,05,32,17.60
2018,08,07,05,33,17.60
2018,08,07,05,34,17.60
2018,08,07,05,35,17.60
2018,08,07,05,36,17.60
2018,08,07,05,37,17.60
2018,08,07,05,38,17.60
2018,08,07,05,39,17.60
2018,08,07,05,40,17.60
2018,08,07,05,41,17.60
2018,08,07,05,42,17.60
2018,08,07,05,43,17.60
2018,08,07,05,44,17.60
2018,08,07,05,45,17.50
2018,08,07,05,46,17.50
2018,08,07,05,47,17.50
2018,08,07,05,48,17.50
2018,08,07,05,49,17.50
2018,08,07,05,50,17.50
2018,08,07,05,51,17.50
2018,08,07,05,52,17.50
2018,08,07,05,53,17.40
2018,08,07,05,54,17.40
2018,08,07,05,55,17.40
2018,08,07,05,56,17.40
2018,08,07,05,57,17.40
2018,08,07,05,58,17.40
2018,08,07,05,59,17.40
2018,08,07,06,00,17.40
2018,08,07,06,01,17.40
2018,08,07,06,02,17.40
2018,08,07,06,03,17.40
2018,08,07,06,04,17.40
2018,08,07,06,05,17.40
2018,08,07,06,06,17.40
2018,08,07,06,07,17.50
2018,08,07,06,08,17.40
2018,08,07,06,09,17.40
2018,08,07,06,10,17.40
2018,08,07,06,11,17.40
2018,08,07,06,12,17.40
2018,08,07,06,13,17.40
2018,08,07,06,14,17.40
2018,08,07,06,15,17.40
2018,08,07,06,16,17.40
2018,08,07,06,17,17.40
2018,08,07,06,18,17.40
2018,08,07,06,19,17.40
2018,08,07,06,20,17.40
2018,08,07,06,21,17.40
2018,08,07,06,22,17.40
2018,08,07,06,23,17.40
2018,08,07,06,24,17.30
2018,08,07,06,25,17.30
2018,08,07,06,26,17.30
2018,08,07,06,27,17.30
2018,08,07,06,28,17.30
2018,08,07,06,29,17.30
2018,08,07,06,30,17.30
2018,08,07,06,31,17.30
2018,08,07,06,32,17.30
2018,08,07,06,33,17.30
2018,08,07,06,34,17.30
2018,08,07,06,35,17.30
2018,08,07,06,36,17.30
2018,08,07,06,37,17.30
2018,08,07,06,38,17.30
2018,08,07,06,39,17.30
2018,08,07,06,40,17.30
2018,08,07,06,41,17.30
2018,08,07,06,42,17.30
2018,08,07,06,43,17.30
2018,08,07,06,44,17.30
2018,08,07,06,45,17.30
2018,08,07,06,46,17.30
2018,08,07,06,47,17.30
2018,08,07,06,48,17.30
2018,08,07,06,49,17.20
2018,08,07,06,50,17.30
2018,08,07,06,51,17.30
2018,08,07,06,52,17.30
2018,08,07,06,53,17.20
2018,08,07,06,54,17.30
2018,08,07,06,55,17.30
2018,08,07,06,56,17.30
2018,08,07,06,57,17.30
2018,08,07,06,58,17.30
2018,08,07,06,59,17.30
2018,08,07,07,00,17.30
2018,08,07,07,01,17.20
2018,08,07,07,02,17.30
2018,08,07,07,03,17.20
2018,08,07,07,04,17.20
2018,08,07,07,05,17.20
2018,08,07,07,06,17.20
2018,08,07,07,07,17.20
2018,08,07,07,08,17.20
2018,08,07,07,09,17.20
2018,08,07,07,10,17.20
2018,08,07,07,11,17.20
2018,08,07,07,12,17.20
2018,08,07,07,13,17.20
2018,08,07,07,14,17.20
2018,08,07,07,15,17.20
2018,08,07,07,16,17.20
2018,08,07,07,17,17.20
2018,08,07,07,18,17.20
2018,08,07,07,19,17.30
2018,08,07,07,20,17.20
2018,08,07,07,21,17.30
2018,08,07,07,22,17.30
2018,08,07,07,23,17.30
2018,08,07,07,24,17.30
2018,08,07,07,25,17.30
2018,08,07,07,26,17.30
2018,08,07,07,27,17.30
2018,08,07,07,28,17.30
2018,08,07,07,29,17.30
2018,08,07,07,30,17.30
2018,08,07,07,31,17.30
2018,08,07,07,32,17.30
2018,08,07,07,33,17.30
2018,08,07,07,34,17.30
2018,08,07,07,35,17.30
2018,08,07,07,36,17.30
2018,08,07,07,37,17.30
2018,08,07,07,38,17.30
2018,08,07,07,39,17.30
2018,08,07,07,40,17.30
2018,08,07,07,41,17.30
2018,08,07,07,42,17.30
2018,08,07,07,43,17.30
2018,08,07,07,44,17.30
2018,08,07,07,45,17.30
2018,08,07,07,46,17.30
2018,08,07,07,47,17.30
2018,08,07,07,48,17.30
2018,08,07,07,49,17.30
2018,08,07,07,50,17.30
2018,08,07,07,51,17.30
2018,08,07,07,52,17.30
2018,08,07,07,53,17.30
2018,08,07,07,54,17.30
2018,08,07,07,55,17.30
2018,08,07,07,56,17.30
2018,08,07,07,57,17.30
2018,08,07,07,58,17.30
2018,08,07,07,59,17.30
2018,08,07,08,00,17.30
2018,08,07,08,01,17.30
2018,08,07,08,02,17.30
2018,08,07,08,03,17.30
2018,08,07,08,04,17.30
2018,08,07,08,05,17.30
2018,08,07,08,06,17.30
2018,08,07,08,07,17.30
2018,08,07,08,08,17.20
2018,08,07,08,09,17.20
2018,08,07,08,10,17.20
2018,08,07,08,11,17.20
2018,08,07,08,12,17.20
2018,08,07,08,13,17.20
2018,08,07,08,14,17.20
2018,08,07,08,15,17.20
2018,08,07,08,16,17.20
2018,08,07,08,17,17.20
2018,08,07,08,18,17.20
2018,08,07,08,19,17.20
2018,08,07,08,20,17.20
2018,08,07,08,21,17.20
2018,08,07,08,22,17.20
2018,08,07,08,23,17.20
2018,08,07,08,24,17.20
2018,08,07,08,25,17.20
2018,08,07,08,26,17.20
2018,08,07,08,27,17.20
2018,08,07,08,28,17.20
2018,08,07,08,29,17.20
2018,08,07,08,30,17.30
2018,08,07,08,31,17.30
2018,08,07,08,32,17.30
2018,08,07,08,33,17.30
2018,08,07,08,34,17.30
2018,08,07,08,35,17.30
2018,08,07,08,36,17.30
2018,08,07,08,37,17.30
2018,08,07,08,38,17.30
2018,08,07,08,39,17.30
2018,08,07,08,40,17.30
2018,08,07,08,41,17.30
2018,08,07,08,42,17.30
2018,08,07,08,43,17.30
2018,08,07,08,44,17.30
2018,08,07,08,45,17.30
2018,08,07,08,46,17.30
2018,08,07,08,47,17.30
2018,08,07,08,48,17.30
2018,08,07,08,49,17.20
2018,08,07,08,50,17.20
2018,08,07,08,51,17.20
2018,08,07,08,52,17.20
2018,08,07,08,53,17.20
2018,08,07,08,54,17.20
2018,08,07,08,55,17.20
2018,08,07,08,56,17.20
2018,08,07,08,57,17.20
2018,08,07,08,58,17.20
2018,08,07,08,59,17.20
2018,08,07,09,00,17.10
2018,08,07,09,01,17.10
2018,08,07,09,02,17.10
2018,08,07,09,03,17.10
2018,08,07,09,04,17.10
2018,08,07,09,05,17.10
2018,08,07,09,06,17.10
2018,08,07,09,07,17.20
2018,08,07,09,08,17.20
2018,08,07,09,09,17.20
2018,08,07,09,10,17.20
2018,08,07,09,11,17.20
2018,08,07,09,12,17.20
2018,08,07,09,13,17.20
2018,08,07,09,14,17.20
2018,08,07,09,15,17.20
2018,08,07,09,16,17.30
2018,08,07,09,17,17.30
2018,08,07,09,18,17.30
2018,08,07,09,19,17.30
2018,08,07,09,20,17.30
2018,08,07,09,21,17.30
2018,08,07,09,22,17.40
2018,08,07,09,23,17.40
2018,08,07,09,24,17.40
2018,08,07,09,25,17.40
2018,08,07,09,26,17.40
2018,08,07,09,27,17.40
2018,08,07,09,28,17.40
2018,08,07,09,29,17.40
2018,08,07,09,30,17.50
2018,08,07,09,31,17.50
2018,08,07,09,32,17.50
2018,08,07,09,33,17.50
2018,08,07,09,34,17.50
2018,08,07,09,35,17.50
2018,08,07,09,36,17.60
2018,08,07,09,37,17.60
2018,08,07,09,38,17.60
2018,08,07,09,39,17.60
2018,08,07,09,40,17.70
2018,08,07,09,41,17.70
2018,08,07,09,42,17.70
2018,08,07,09,43,17.70
2018,08,07,09,44,17.70
2018,08,07,09,45,17.80
2018,08,07,09,46,17.80
2018,08,07,09,47,17.80
2018,08,07,09,48,17.90
2018,08,07,09,49,17.90
2018,08,07,09,50,18.00
2018,08,07,09,51,18.00
2018,08,07,09,52,18.00
2018,08,07,09,53,18.10
2018,08,07,09,54,18.20
2018,08,07,09,55,18.20
2018,08,07,09,56,18.20
2018,08,07,09,57,18.20
2018,08,07,09,58,18.20
2018,08,07,09,59,18.20
2018,08,07,10,00,18.20
2018,08,07,10,01,18.30
2018,08,07,10,02,18.30
2018,08,07,10,03,18.30
2018,08,07,10,04,18.30
2018,08,07,10,05,18.30
2018,08,07,10,06,18.30
2018,08,07,10,07,18.30
2018,08,07,10,08,18.30
2018,08,07,10,09,18.30
2018,08,07,10,10,18.30
2018,08,07,10,11,18.30
2018,08,07,10,12,18.30
2018,08,07,10,13,18.30
2018,08,07,10,14,18.30
2018,08,07,10,15,18.30
2018,08,07,10,16,18.30
2018,08,07,10,17,18.30
2018,08,07,10,18,18.30
2018,08,07,10,19,18.30
2018,08,07,10,20,18.30
2018,08,07,10,21,18.40
2018,08,07,10,22,18.30
2018,08,07,10,23,18.30
2018,08,07,10,24,18.30
2018,08,07,10,25,18.40
2018,08,07,10,26,18.50
2018,08,07,10,27,18.50
2018,08,07,10,28,18.60
2018,08,07,10,29,18.60
2018,08,07,10,30,18.60
2018,08,07,10,31,18.60
2018,08,07,10,32,18.60
2018,08,07,10,33,18.60
2018,08,07,10,34,18.60
2018,08,07,10,35,18.60
2018,08,07,10,36,18.60
2018,08,07,10,37,18.60
2018,08,07,10,38,18.50
2018,08,07,10,39,18.50
2018,08,07,10,40,18.50
2018,08,07,10,41,18.50
2018,08,07,10,42,18.50
2018,08,07,10,43,18.50
2018,08,07,10,44,18.50
2018,08,07,10,45,18.50
2018,08,07,10,46,18.50
2018,08,07,10,47,18.50
2018,08,07,10,48,18.40
2018,08,07,10,49,18.40
2018,08,07,10,50,18.40
2018,08,07,10,51,18.40
2018,08,07,10,52,18.50
2018,08,07,10,53,18.60
2018,08,07,10,54,18.70
2018,08,07,10,55,18.90
2018,08,07,10,56,19.00
2018,08,07,10,57,19.20
2018,08,07,10,58,19.30
2018,08,07,10,59,19.40
2018,08,07,11,00,19.50
2018,08,07,11,01,19.70
2018,08,07,11,02,19.80
2018,08,07,11,03,19.90
2018,08,07,11,04,20.00
2018,08,07,11,05,20.10
2018,08,07,11,06,20.30
2018,08,07,11,07,20.40
2018,08,07,11,08,20.50
2018,08,07,11,09,20.50
2018,08,07,11,10,20.50
2018,08,07,11,11,20.50
2018,08,07,11,12,20.50
2018,08,07,11,13,20.50
2018,08,07,11,14,20.60
2018,08,07,11,15,20.60
2018,08,07,11,16,20.60
2018,08,07,11,17,20.60
2018,08,07,11,18,20.70
2018,08,07,11,19,20.60
2018,08,07,11,20,20.60
2018,08,07,11,21,20.60
2018,08,07,11,22,20.60
2018,08,07,11,23,20.60
2018,08,07,11,24,20.60
2018,08,07,11,25,20.50
2018,08,07,11,26,20.50
2018,08,07,11,27,20.50
2018,08,07,11,28,20.50
2018,08,07,11,29,20.50
2018,08,07,11,30,20.60
2018,08,07,11,31,20.60
2018,08,07,11,32,20.60
2018,08,07,11,33,20.70
2018,08,07,11,34,20.70
2018,08,07,11,35,20.70
2018,08,07,11,36,20.70
2018,08,07,11,37,20.70
2018,08,07,11,38,20.70
2018,08,07,11,39,20.80
2018,08,07,11,40,20.70
2018,08,07,11,41,20.70
2018,08,07,11,42,20.70
2018,08,07,11,43,20.80
2018,08,07,11,44,20.80
2018,08,07,11,45,20.80
2018,08,07,11,46,20.80
2018,08,07,11,47,20.90
2018,08,07,11,48,20.90
2018,08,07,11,49,20.90
2018,08,07,11,50,21.00
2018,08,07,11,51,21.00
2018,08,07,11,52,21.00
2018,08,07,11,53,21.10
2018,08,07,11,54,21.10
2018,08,07,11,55,21.10
2018,08,07,11,56,21.10
2018,08,07,11,57,21.20
2018,08,07,11,58,21.20
2018,08,07,11,59,21.20
2018,08,07,12,00,21.30
2018,08,07,12,01,21.30
2018,08,07,12,02,21.30
2018,08,07,12,03,21.40
2018,08,07,12,04,21.40
2018,08,07,12,05,21.40
2018,08,07,12,06,21.50
2018,08,07,12,07,21.50
2018,08,07,12,08,21.60
2018,08,07,12,09,21.60
2018,08,07,12,10,21.60
2018,08,07,12,11,21.70
2018,08,07,12,12,21.70
2018,08,07,12,13,21.80
2018,08,07,12,14,21.80
2018,08,07,12,15,21.80
2018,08,07,12,16,21.80
2018,08,07,12,17,21.80
2018,08,07,12,18,21.80
2018,08,07,12,19,21.80
2018,08,07,12,20,21.80
2018,08,07,12,21,21.70
2018,08,07,12,22,21.70
2018,08,07,12,23,21.70
2018,08,07,12,24,21.80
2018,08,07,12,25,21.80
2018,08,07,12,26,21.70
2018,08,07,12,27,21.80
2018,08,07,12,28,21.80
2018,08,07,12,29,21.80
2018,08,07,12,30,21.80
2018,08,07,12,31,21.80
2018,08,07,12,32,21.90
2018,08,07,12,33,21.90
2018,08,07,12,34,22.00
2018,08,07,12,35,22.10
2018,08,07,12,36,22.10
2018,08,07,12,37,22.10
2018,08,07,12,38,22.20
2018,08,07,12,39,22.30
2018,08,07,12,40,22.30
2018,08,07,12,41,22.40
2018,08,07,12,42,22.40
2018,08,07,12,43,22.50
2018,08,07,12,44,22.40
2018,08,07,12,45,22.40
2018,08,07,12,46,22.40
2018,08,07,12,47,22.40
2018,08,07,12,48,22.40
2018,08,07,12,49,22.40
2018,08,07,12,50,22.40
2018,08,07,12,51,22.40
2018,08,07,12,52,22.40
2018,08,07,12,53,22.40
2018,08,07,12,54,22.40
2018,08,07,12,55,22.40
2018,08,07,12,56,22.40
2018,08,07,12,57,22.40
2018,08,07,12,58,22.40
2018,08,07,12,59,22.40
2018,08,07,13,00,22.40
2018,08,07,13,01,22.50
2018,08,07,13,02,22.40
2018,08,07,13,03,22.50
2018,08,07,13,04,22.50
2018,08,07,13,05,22.50
2018,08,07,13,06,22.60
2018,08,07,13,07,22.60
2018,08,07,13,08,22.70
2018,08,07,13,09,22.70
2018,08,07,13,10,22.80
2018,08,07,13,11,22.80
2018,08,07,13,12,22.80
2018,08,07,13,13,22.90
2018,08,07,13,14,23.00
2018,08,07,13,15,23.10
2018,08,07,13,16,23.10
2018,08,07,13,17,23.20
2018,08,07,13,18,23.20
2018,08,07,13,19,23.30
2018,08,07,13,20,23.40
2018,08,07,13,21,23.40
2018,08,07,13,22,23.60
2018,08,07,13,23,23.70
2018,08,07,13,24,23.80
2018,08,07,13,25,23.80
2018,08,07,13,26,23.90
2018,08,07,13,27,24.00
2018,08,07,13,28,24.10
2018,08,07,13,29,24.20
2018,08,07,13,30,24.20
2018,08,07,13,31,24.30
2018,08,07,13,32,24.40
2018,08,07,13,33,24.50
2018,08,07,13,34,24.60
2018,08,07,13,35,24.60
2018,08,07,13,36,24.70
2018,08,07,13,37,24.70
2018,08,07,13,38,24.70
2018,08,07,13,39,24.70
2018,08,07,13,40,24.80
2018,08,07,13,41,24.70
2018,08,07,13,42,24.70
2018,08,07,13,43,24.70
2018,08,07,13,44,24.70
2018,08,07,13,45,24.70
2018,08,07,13,46,24.70
2018,08,07,13,47,24.70
2018,08,07,13,48,24.70
2018,08,07,13,49,24.70
2018,08,07,13,50,24.60
2018,08,07,13,51,24.60
2018,08,07,13,52,24.60
2018,08,07,13,53,24.60
2018,08,07,13,54,24.60
2018,08,07,13,55,24.60
2018,08,07,13,56,24.70
2018,08,07,13,57,24.70
2018,08,07,13,58,24.70
2018,08,07,13,59,24.80
2018,08,07,14,00,24.80
2018,08,07,14,01,24.80
2018,08,07,14,02,24.90
2018,08,07,14,03,25.00
2018,08,07,14,04,25.00
2018,08,07,14,05,25.10
2018,08,07,14,06,25.30
2018,08,07,14,07,25.40
2018,08,07,14,08,25.50
2018,08,07,14,09,25.60
2018,08,07,14,10,25.70
2018,08,07,14,11,25.70
2018,08,07,14,12,25.80
2018,08,07,14,13,25.80
2018,08,07,14,14,25.80
2018,08,07,14,15,25.70
2018,08,07,14,16,25.70
2018,08,07,14,17,25.70
2018,08,07,14,18,25.70
2018,08,07,14,19,25.70
2018,08,07,14,20,25.70
2018,08,07,14,21,25.70
2018,08,07,14,22,25.70
2018,08,07,14,23,25.70
2018,08,07,14,24,25.70
2018,08,07,14,25,25.70
2018,08,07,14,26,25.70
2018,08,07,14,27,25.70
2018,08,07,14,28,25.80
2018,08,07,14,29,25.80
2018,08,07,14,30,25.80
2018,08,07,14,31,25.80
2018,08,07,14,32,25.90
2018,08,07,14,33,26.00
2018,08,07,14,34,26.10
2018,08,07,14,35,26.10
2018,08,07,14,36,26.10
2018,08,07,14,37,26.20
2018,08,07,14,38,26.20
2018,08,07,14,39,26.20
2018,08,07,14,40,26.20
2018,08,07,14,41,26.20
2018,08,07,14,42,26.10
2018,08,07,14,43,26.00
2018,08,07,14,44,25.90
2018,08,07,14,45,25.80
2018,08,07,14,46,25.80
2018,08,07,14,47,25.70
2018,08,07,14,48,25.70
2018,08,07,14,49,25.70
2018,08,07,14,50,25.80
2018,08,07,14,51,25.80
2018,08,07,14,52,25.80
2018,08,07,14,53,25.80
2018,08,07,14,54,25.80
2018,08,07,14,55,25.80
2018,08,07,14,56,25.80
2018,08,07,14,57,25.80
2018,08,07,14,58,25.80
2018,08,07,14,59,25.90
2018,08,07,15,00,25.90
2018,08,07,15,01,25.90
2018,08,07,15,02,26.00
2018,08,07,15,03,26.10
2018,08,07,15,04,26.10
2018,08,07,15,05,26.10
2018,08,07,15,06,26.20
2018,08,07,15,07,26.20
2018,08,07,15,08,26.30
2018,08,07,15,09,26.30
2018,08,07,15,10,26.30
2018,08,07,15,11,26.30
2018,08,07,15,12,26.40
2018,08,07,15,13,26.40
2018,08,07,15,14,26.40
2018,08,07,15,15,26.40
2018,08,07,15,16,26.40
2018,08,07,15,17,26.40
2018,08,07,15,18,26.40
2018,08,07,15,19,26.40
2018,08,07,15,20,26.40
2018,08,07,15,21,26.40
2018,08,07,15,22,26.40
2018,08,07,15,23,26.40
2018,08,07,15,24,26.40
2018,08,07,15,25,26.40
2018,08,07,15,26,26.50
2018,08,07,15,27,26.50
2018,08,07,15,28,26.60
2018,08,07,15,29,26.60
2018,08,07,15,30,26.70
2018,08,07,15,31,26.80
2018,08,07,15,32,26.90
2018,08,07,15,33,26.90
2018,08,07,15,34,26.90
2018,08,07,15,35,26.90
2018,08,07,15,36,26.90
2018,08,07,15,37,26.90
2018,08,07,15,38,26.90
2018,08,07,15,39,26.90
2018,08,07,15,40,26.90
2018,08,07,15,41,26.90
2018,08,07,15,42,26.90
2018,08,07,15,43,27.00
2018,08,07,15,44,27.00
2018,08,07,15,45,27.00
2018,08,07,15,46,27.00
2018,08,07,15,47,27.00
2018,08,07,15,48,27.10
2018,08,07,15,49,27.10
2018,08,07,15,50,27.20
2018,08,07,15,51,27.20
2018,08,07,15,52,27.30
2018,08,07,15,53,27.30
2018,08,07,15,54,27.30
2018,08,07,15,55,27.30
2018,08,07,15,56,27.30
2018,08,07,15,57,27.30
2018,08,07,15,58,27.20
2018,08,07,15,59,27.20
2018,08,07,16,00,27.20
2018,08,07,16,01,27.20
2018,08,07,16,02,27.20
2018,08,07,16,03,27.30
2018,08,07,16,04,27.30
2018,08,07,16,05,27.30
2018,08,07,16,06,27.30
2018,08,07,16,07,27.30
2018,08,07,16,08,27.40
2018,08,07,16,09,27.40
2018,08,07,16,10,27.30
2018,08,07,16,11,27.30
2018,08,07,16,12,27.30
2018,08,07,16,13,27.30
2018,08,07,16,14,27.30
2018,08,07,16,15,27.30
2018,08,07,16,16,27.30
2018,08,07,16,17,27.20
2018,08,07,16,18,27.20
2018,08,07,16,19,27.10
2018,08,07,16,20,27.10
2018,08,07,16,21,27.10
2018,08,07,16,22,27.10
2018,08,07,16,23,27.10
2018,08,07,16,24,27.20
2018,08,07,16,25,27.20
2018,08,07,16,26,27.30
2018,08,07,16,27,27.30
2018,08,07,16,28,27.30
2018,08,07,16,29,27.30
2018,08,07,16,30,27.40
2018,08,07,16,31,27.50
2018,08,07,16,32,27.50
2018,08,07,16,33,27.60
2018,08,07,16,34,27.70
2018,08,07,16,35,27.70
2018,08,07,16,36,27.80
2018,08,07,16,37,27.80
2018,08,07,16,38,27.80
2018,08,07,16,39,27.80
2018,08,07,16,40,27.90
2018,08,07,16,41,27.90
2018,08,07,16,42,28.00
2018,08,07,16,43,28.10
2018,08,07,16,44,28.10
2018,08,07,16,45,28.10
2018,08,07,16,46,28.10
2018,08,07,16,47,28.00
2018,08,07,16,48,28.00
2018,08,07,16,49,27.90
2018,08,07,16,50,27.80
2018,08,07,16,51,27.80
2018,08,07,16,52,27.70
2018,08,07,16,53,27.60
2018,08,07,16,54,27.50
2018,08,07,16,55,27.50
2018,08,07,16,56,27.50
2018,08,07,16,57,27.50
2018,08,07,16,58,27.40
2018,08,07,16,59,27.50
2018,08,07,17,00,27.40
2018,08,07,17,01,27.40
2018,08,07,17,02,27.40
2018,08,07,17,03,27.30
2018,08,07,17,04,27.30
2018,08,07,17,05,27.30
2018,08,07,17,06,27.30
2018,08,07,17,07,27.40
2018,08,07,17,08,27.40
2018,08,07,17,09,27.40
2018,08,07,17,10,27.40
2018,08,07,17,11,27.50
2018,08,07,17,12,27.60
2018,08,07,17,13,27.60
2018,08,07,17,14,27.70
2018,08,07,17,15,27.80
2018,08,07,17,16,27.90
2018,08,07,17,17,27.90
2018,08,07,17,18,28.00
2018,08,07,17,19,28.00